Location: Schommer Observatory
(40.5200°N, 74.4500°W)
Time: 01:12:09
(UTC-04:00)

Tiangong 2 - Pass Details

Date: 23 May 2018
Orbit: 382 x 386 km, 42.8° (Epoch: 20 May)

Event Time Altitude Azimuth Distance (km) Brightness Sun altitude
Rises 21:05:16 0° 241° (WSW) 2,242 5.3 -8.8°
Reaches altitude 10° 21:07:20 10° 237° (WSW) 1,392 4.2 -9.2°
Maximum altitude 21:10:25 57° 158° (SSE) 453 1.1 -9.6°
Drops below altitude 10° 21:13:31 10° 78° (ENE) 1,396 3.5 -10.1°
Enters shadow 21:14:25 - 76° (ENE) 1,763 4.1 -10.2°
